Date String (YYYY-MM-DD hh:mm:ss) UTC,Instrument flags,absolute air pressure of the measurement (hPa),sample flow rate (lpm),inlet stack bypass flow (lpm),air temperature of the measurement (°C),ambient temperature measured by the external sensor (°C),aerosol sample conditioner tube jacket temperature (°C),OPC LED temperature (°C),internal box temperature (°C),relative humidity of the measurement (%),span deviation,mass concentration of particles derived from Lorenz-Mie calculation of OPC scattering (μg/m³),mass concentration of particles derived from Lorenz-Mie calculation of OPC scattering (μg/m³),mass concentration of particles derived from Lorenz-Mie calculation of OPC scattering (μg/m³)
DateTimeUTC,F1_M11,P_M11,Q1_M11,Q2_M11,T1_M11,T2_M11,T3_M11,T4_M11,T5_M11,U1_M11,ZSPAN_M11,X0_M11,X2_M11,X1_M11
2023-10-04 16:00:00,SystemResetWarning,0832.3,4.99,000.00,028.8,027.2,000.0,037.3,030.4,15.9,0000.0,0006.35,0002.22,0001.57
2023-10-04 16:01:00,SystemResetWarning,0832.3,5.00,000.00,028.8,027.3,000.0,037.3,030.5,15.9,0000.0,0006.98,0002.17,0001.55
2023-10-04 16:02:00,SystemResetWarning,0832.3,5.00,000.00,028.8,027.3,000.0,037.3,030.5,16.0,0000.0,0007.81,0002.09,0001.52
2023-10-04 16:03:00,SystemResetWarning,0832.3,5.00,000.00,028.8,027.4,000.0,037.3,030.5,15.8,0000.0,0007.67,0002.06,0001.50
2023-10-04 16:04:00,SystemResetWarning,0832.3,5.00,000.00,028.9,027.5,000.0,037.3,030.5,15.7,0000.0,0007.61,0002.06,0001.51
2023-10-04 16:05:00,SystemResetWarning,0832.3,5.00,000.00,028.9,027.5,000.0,037.3,030.6,15.8,0000.0,0007.60,0002.05,0001.51
2023-10-04 16:06:00,SystemResetWarning,0832.3,5.01,000.00,028.9,027.6,000.0,037.3,030.6,16.0,0000.0,0007.56,0002.02,0001.51
2023-10-04 16:07:00,SystemResetWarning,0832.3,5.01,000.00,028.9,027.6,000.0,037.3,030.6,15.8,0000.0,0007.38,0002.03,0001.51
2023-10-04 16:08:00,SystemResetWarning,0832.3,5.00,000.00,028.9,027.6,000.0,037.3,030.6,15.8,0000.0,0006.83,0002.07,0001.53
2023-10-04 16:09:00,SystemResetWarning,0832.3,5.00,000.00,029.0,027.7,000.0,037.4,030.6,15.7,0000.0,0006.63,0002.09,0001.55
2023-10-04 16:10:00,SystemResetWarning,0832.3,4.99,000.00,029.0,027.7,000.0,037.4,030.7,15.7,0000.0,0006.23,0002.10,0001.56
2023-10-04 16:11:00,SystemResetWarning,0832.3,4.99,000.00,029.0,027.7,000.0,037.4,030.7,15.7,0000.0,0006.44,0002.16,0001.56
2023-10-04 16:12:00,SystemResetWarning,0832.3,5.01,000.00,029.0,027.8,000.0,037.4,030.7,15.7,0000.0,0006.06,0002.22,0001.58
2023-10-04 16:13:00,SystemResetWarning,0832.3,5.01,000.00,029.1,027.8,000.0,037.4,030.7,15.8,0000.0,0004.61,0002.32,0001.59
2023-10-04 16:14:00,SystemResetWarning,0832.3,5.00,000.00,029.1,027.9,000.0,037.4,030.8,15.8,0000.0,0005.27,0002.33,0001.60
2023-10-04 16:15:00,SystemResetWarning,0832.3,5.00,000.00,029.1,027.9,000.0,037.5,030.8,15.8,0000.0,0005.54,0002.36,0001.58
2023-10-04 16:16:00,SystemResetWarning,0832.3,4.99,000.00,029.1,028.0,000.0,037.5,030.8,15.9,0000.0,0005.77,0002.38,0001.58
2023-10-04 16:17:00,SystemResetWarning,0832.3,5.00,000.00,029.2,028.0,000.0,037.5,030.8,16.0,0000.0,0007.38,0002.40,0001.59
2023-10-04 16:18:00,SystemResetWarning,0832.3,5.00,000.00,029.2,028.0,000.0,037.5,030.9,16.0,0000.0,0007.61,0002.45,0001.60
2023-10-04 16:19:00,SystemResetWarning,0832.3,5.00,000.00,029.2,028.0,000.0,037.5,030.9,15.9,0000.0,0007.56,0002.44,0001.60
2023-10-04 16:20:00,SystemResetWarning,0832.2,5.00,000.00,029.2,026.6,000.0,037.5,030.9,15.9,0000.0,0007.65,0002.40,0001.61
2023-10-04 16:21:00,SystemResetWarning,0832.2,5.00,000.00,029.1,024.9,000.0,037.4,030.6,15.9,0000.0,0007.89,0002.37,0001.61
2023-10-04 16:22:00,SystemResetWarning,0832.2,5.01,000.00,029.0,024.8,000.0,037.4,030.5,16.0,0000.0,0008.04,0002.35,0001.62
2023-10-04 16:23:00,SystemResetWarning,0832.2,5.01,000.00,028.9,025.0,000.0,037.4,030.3,16.2,0000.0,0008.01,0002.33,0001.63
2023-10-04 16:24:00,SystemResetWarning,0832.2,5.00,000.00,028.8,025.4,000.0,037.4,030.2,16.2,0000.0,0007.84,0002.28,0001.64
2023-10-04 16:25:00,SystemResetWarning,0832.2,5.00,000.00,028.8,025.8,000.0,037.4,030.2,16.3,0000.0,0007.29,0002.27,0001.65
2023-10-04 16:26:00,SystemResetWarning,0832.2,4.99,000.00,028.7,026.1,000.0,037.3,030.3,16.2,0000.0,0007.45,0002.28,0001.68
2023-10-04 16:27:00,SystemResetWarning,0832.2,5.00,000.00,028.7,026.4,000.0,037.3,030.3,16.3,0000.0,0007.51,0002.31,0001.69
2023-10-04 16:28:00,SystemResetWarning,0832.2,5.00,000.00,028.7,026.7,000.0,037.3,030.3,16.3,0000.0,0006.08,0002.30,0001.69
2023-10-04 16:29:00,SystemResetWarning,0832.2,5.00,000.00,028.8,026.9,000.0,037.3,030.4,16.5,0000.0,0005.80,0002.30,0001.70
2023-10-04 16:30:00,SystemResetWarning,0832.1,5.01,000.00,028.8,027.0,000.0,037.3,030.4,16.3,0000.0,0005.98,0002.35,0001.70
2023-10-04 16:31:00,SystemResetWarning,0832.2,5.00,000.00,028.8,027.2,000.0,037.3,030.5,16.4,0000.0,0006.22,0002.40,0001.69
2023-10-04 16:32:00,SystemResetWarning,0832.2,5.01,000.00,028.8,027.3,000.0,037.3,030.5,16.3,0000.0,0006.20,0002.46,0001.69
2023-10-04 16:33:00,SystemResetWarning,0832.2,5.00,000.00,028.8,027.4,000.0,037.3,030.5,16.2,0000.0,0006.10,0002.47,0001.70
2023-10-04 16:34:00,SystemResetWarning,0832.2,4.99,000.00,028.9,027.5,000.0,037.3,030.5,16.3,0000.0,0006.23,0002.51,0001.70
2023-10-04 16:35:00,SystemResetWarning,0832.2,5.00,000.00,028.9,027.6,000.0,037.3,030.6,16.3,0000.0,0006.51,0002.58,0001.70
2023-10-04 16:36:00,SystemResetWarning,0832.2,4.99,000.00,028.9,027.6,000.0,037.3,030.6,16.3,0000.0,0006.77,0002.62,0001.72
2023-10-04 16:37:00,SystemResetWarning,0832.2,5.00,000.00,028.9,027.7,000.0,037.4,030.6,16.5,0000.0,0006.51,0002.68,0001.72
2023-10-04 16:38:00,SystemResetWarning,0832.2,5.00,000.00,029.0,027.7,000.0,037.4,030.7,16.7,0000.0,0006.27,0002.71,0001.73
2023-10-04 16:39:00,SystemResetWarning,0832.2,5.00,000.00,029.0,027.8,000.0,037.4,030.7,16.4,0000.0,0006.33,0002.74,0001.75
2023-10-04 16:40:00,SystemResetWarning,0832.1,5.01,000.00,029.0,027.8,000.0,037.4,030.7,16.4,0000.0,0006.70,0002.75,0001.76
2023-10-04 16:41:00,SystemResetWarning,0832.1,5.00,000.00,029.0,027.8,000.0,037.4,030.7,16.4,0000.0,0007.84,0002.70,0001.77
2023-10-04 16:42:00,SystemResetWarning,0832.1,5.00,000.00,029.1,027.8,000.0,037.4,030.7,16.4,0000.0,0007.90,0002.71,0001.78
2023-10-04 16:43:00,SystemResetWarning,0832.1,4.99,000.00,029.1,027.9,000.0,037.4,030.8,16.2,0000.0,0008.51,0002.72,0001.81
2023-10-04 16:44:00,SystemResetWarning,0832.1,4.99,000.00,029.1,027.9,000.0,037.5,030.8,16.2,0000.0,0008.62,0002.78,0001.83
2023-10-04 16:45:00,SystemResetWarning,0832.1,5.00,000.00,029.1,028.0,000.0,037.5,030.8,16.3,0000.0,0009.50,0002.81,0001.85
2023-10-04 16:46:00,SystemResetWarning,0832.1,5.00,000.00,029.2,027.5,000.0,037.5,030.8,16.1,0000.0,0009.42,0002.77,0001.89
2023-10-04 16:47:00,SystemResetWarning,0832.0,5.00,000.00,029.1,025.6,000.0,037.4,030.7,15.8,0000.0,0009.36,0002.80,0001.90
2023-10-04 16:48:00,SystemResetWarning,0832.0,5.00,000.00,029.0,024.4,000.0,037.3,030.4,15.8,0000.0,0009.35,0002.77,0001.89
2023-10-04 16:49:00,SystemResetWarning,0832.0,5.02,000.00,028.9,024.5,000.0,037.3,030.3,15.9,0000.0,0009.46,0002.81,0001.90
2023-10-04 16:50:00,SystemResetWarning,0832.0,5.00,000.00,028.8,024.8,000.0,037.3,030.1,16.2,0000.0,0009.69,0002.86,0001.91
2023-10-04 16:51:00,SystemResetWarning,0832.0,5.01,000.00,028.7,025.3,000.0,037.3,030.1,16.0,0000.0,0009.72,0002.88,0001.91
2023-10-04 16:52:00,SystemResetWarning,0832.0,5.00,000.00,028.7,025.7,000.0,037.3,030.2,16.2,0000.0,0008.97,0002.95,0001.91
2023-10-04 16:53:00,SystemResetWarning,0832.0,4.99,000.00,028.7,026.0,000.0,037.3,030.2,16.4,0000.0,0009.73,0002.96,0001.90
2023-10-04 16:54:00,SystemResetWarning,0832.0,5.00,000.00,028.6,026.3,000.0,037.3,030.2,16.3,0000.0,0009.37,0002.96,0001.89
2023-10-04 16:55:00,SystemResetWarning,0832.0,5.00,000.00,028.7,026.6,000.0,037.2,030.3,17.0,0000.0,0009.08,0002.89,0001.89
2023-10-04 16:56:00,SystemResetWarning,0832.0,5.00,000.00,028.7,026.8,000.0,037.2,030.3,17.0,0000.0,0008.23,0002.90,0001.89
2023-10-04 16:57:00,SystemResetWarning,0832.0,4.99,000.00,028.7,027.0,000.0,037.2,030.3,17.0,0000.0,0008.19,0002.89,0001.88
2023-10-04 16:58:00,SystemResetWarning,0832.0,4.99,000.00,028.7,027.1,000.0,037.2,030.4,16.9,0000.0,0008.17,0002.87,0001.88
2023-10-04 16:59:00,SystemResetWarning,0832.0,5.00,000.00,028.7,027.3,000.0,037.2,030.4,16.7,0000.0,0008.89,0002.88,0001.89
